Weather History for London-Corbin, KY

Change the Weather History Date:

Wednesday, September 11, 2013

  Actual Average Record
Temperature  
Mean Temperature 78 °F 70 °F  
Max Temperature 87 °F 81 °F 92 °F (1964)
Min Temperature 69 °F 59 °F 40 °F (1969)
Degree Days  
Heating Degree Days 0 1  
Month to date heating degree days 0 1  
Since 1 July heating degree days 0 2  
Cooling Degree Days 13 6  
Month to date cooling degree days 105 77  
Year to date cooling degree days 997 1101  
Growing Degree Days 28 (Base 50)    
Moisture  
Dew Point 68 °F    
Average Humidity 74    
Maximum Humidity 93    
Minimum Humidity 55    
Precipitation  
Precipitation 0.00 in 0.12 in 1.73 in (2010)
Month to date precipitation 0.68 1.20  
Year to date precipitation 41.72 33.88  
Sea Level Pressure  
Sea Level Pressure 30.17 in    
Wind  
Wind Speed 3 mph (WSW)    
Max Wind Speed 13 mph    
Max Gust Speed 25 mph    
Visibility 7 miles    
Events Thunderstorm    
T = Trace of Precipitation, MM = Missing Value Source: NWS Daily Summary

Daily Weather History Graph

Daily Weather History Graph

Search for Another Location

Airport:

Trip Planner

Search our weather history database for the weather conditions in past years. The results will help you decide how hot, cold, wet, or windy it might be!

Date:

Astronomy

Sep. 11, 2013 Rise Set
Actual Time 7:15 AM EDT 7:49 PM EDT
Civil Twilight 6:49 AM EDT 8:15 PM EDT
Nautical Twilight 6:18 AM EDT 8:46 PM EDT
Astronomical Twilight 5:46 AM EDT 9:18 PM EDT
Moon 1:33 PM EDT (9/11) 11:53 PM EDT (9/11)
Length of Visible Light 13h 26m
Length of Day
12h 34m
Waxing Crescent, 38% of the Moon is Illuminated
Sep 11
Waxing Crescent
Sep 12
First Quarter
Sep 19
Full
Sep 26
Last Quarter
Oct 4
New

Hourly Weather History & Observations

Time (EDT) Temp. Heat Index Dew Point Humidity Pressure Visibility Wind Dir Wind Speed Gust Speed Precip Events Conditions
12:53 AM 72.0 °F - 69.1 °F 91% 30.17 in 4.0 mi Calm Calm - N/A   Clear
1:53 AM 73.0 °F - 69.1 °F 87% 30.18 in 6.0 mi Calm Calm - N/A   Clear
2:53 AM 72.0 °F - 68.0 °F 87% 30.17 in 5.0 mi Calm Calm - N/A   Clear
3:51 AM 69.8 °F - 66.2 °F 88% 30.21 in 2.0 mi Calm Calm - N/A   Clear
3:53 AM 70.0 °F - 66.9 °F 90% 30.17 in 2.5 mi Calm Calm - N/A   Clear
4:00 AM 69.8 °F - 66.2 °F 88% 30.21 in 4.0 mi Calm Calm - N/A   Clear
4:53 AM 69.1 °F - 66.0 °F 90% 30.18 in 5.0 mi Calm Calm - 0.01 in   Clear
5:40 AM 69.8 °F - 66.2 °F 88% 30.22 in 2.5 mi Calm Calm - N/A   Scattered Clouds
5:53 AM 69.1 °F - 66.9 °F 93% 30.18 in 3.0 mi Calm Calm - N/A   Mostly Cloudy
6:53 AM 69.1 °F - 66.9 °F 93% 30.19 in 4.0 mi Calm Calm - N/A   Clear
7:53 AM 69.1 °F - 66.0 °F 90% 30.21 in 3.0 mi Calm Calm - N/A   Clear
8:53 AM 72.0 °F - 68.0 °F 87% 30.21 in 5.0 mi Calm Calm - N/A   Clear
9:53 AM 73.9 °F - 69.1 °F 85% 30.22 in 6.0 mi Calm Calm - N/A   Haze
10:53 AM 79.0 °F - 69.1 °F 72% 30.21 in 10.0 mi WSW 3.5 mph - N/A   Mostly Cloudy
11:53 AM 81.0 °F 84.1 °F 69.1 °F 67% 30.21 in 10.0 mi West 4.6 mph - N/A   Overcast
12:53 PM 84.0 °F 87.8 °F 69.1 °F 61% 30.19 in 10.0 mi West 9.2 mph - N/A   Clear
1:53 PM 84.9 °F 89.4 °F 70.0 °F 61% 30.16 in 10.0 mi WSW 5.8 mph - N/A   Clear
2:06 PM 87.8 °F 92.6 °F 69.8 °F 55% 30.19 in 10.0 mi West 10.4 mph - N/A Thunderstorm Partly Cloudy
2:21 PM 84.2 °F 88.4 °F 69.8 °F 62% 30.18 in 10.0 mi NW 5.8 mph - N/A   Partly Cloudy
2:53 PM 86.0 °F 89.4 °F 68.0 °F 55% 30.13 in 10.0 mi West 10.4 mph - N/A   Partly Cloudy
3:53 PM 84.9 °F 88.2 °F 68.0 °F 57% 30.12 in 10.0 mi West 5.8 mph - N/A   Clear
4:22 PM 87.8 °F 90.4 °F 66.2 °F 49% 30.15 in 10.0 mi NW 4.6 mph - N/A Thunderstorm Partly Cloudy
4:53 PM 81.0 °F 83.3 °F 66.9 °F 62% 30.11 in 10.0 mi WNW 13.8 mph 19.6 mph N/A Thunderstorm Clear
5:53 PM 77.0 °F - 66.0 °F 69% 30.13 in 10.0 mi WSW 5.8 mph - N/A Thunderstorm Mostly Cloudy
6:12 PM 77.0 °F - 66.2 °F 69% 30.16 in 10.0 mi SSW 3.5 mph - N/A   Partly Cloudy
6:53 PM 75.9 °F - 66.9 °F 74% 30.14 in 10.0 mi South 4.6 mph - N/A   Clear
7:53 PM 73.9 °F - 68.0 °F 82% 30.12 in 10.0 mi Calm Calm - N/A   Clear
8:53 PM 73.0 °F - 68.0 °F 84% 30.12 in 10.0 mi South 5.8 mph - N/A   Clear
9:53 PM 72.0 °F - 68.0 °F 87% 30.12 in 10.0 mi West 3.5 mph - N/A   Clear
10:53 PM 71.1 °F - 66.9 °F 87% 30.12 in 8.0 mi SSE 3.5 mph - N/A   Clear
11:53 PM 70.0 °F - 66.9 °F 90% 30.09 in 7.0 mi Calm Calm - N/A   Clear